Date,TemperatureHighF,TemperatureAvgF,TemperatureLowF,DewpointHighF,DewpointAvgF,DewpointLowF,HumidityHigh,HumidityAvg,HumidityLow,PressureMaxIn,PressureMinIn,WindSpeedMaxMPH,WindSpeedAvgMPH,GustSpeedMaxMPH,PrecipitationSumIn
2013-3-1,33,29,24,26,23,18,83,79,73,29.83,29.65,6,1,11,0.02
2013-3-2,27,23,20,19,16,14,80,76,67,29.83,29.76,6,3,12,0.00
2013-3-3,30,22,18,17,14,11,78,71,55,29.79,29.73,6,3,12,0.00
2013-3-4,29,23,20,17,15,14,79,71,60,29.94,29.78,7,3,14,0.00
2013-3-5,40,26,19,23,17,12,78,69,49,30.02,29.92,4,1,9,0.06
2013-3-6,41,32,20,27,22,14,79,67,56,30.07,29.91,6,2,12,0.04
2013-3-7,42,33,25,22,19,16,75,57,43,30.16,30.07,6,3,12,0.02
2013-3-8,37,29,22,23,19,14,79,67,52,30.30,30.14,9,4,16,0.10
2013-3-9,46,32,19,28,22,12,81,68,46,30.33,30.22,5,1,10,0.02
2013-3-10,56,44,33,22,20,18,60,39,25,30.23,30.04,10,6,24,0.02
2013-3-11,51,46,42,36,26,20,65,45,39,30.08,29.78,12,7,35,0.00
2013-3-12,49,40,32,41,34,25,82,76,66,29.87,29.75,12,4,27,0.35
2013-3-13,40,32,24,27,22,13,76,67,52,29.87,29.78,5,2,17,0.02
2013-3-14,31,23,16,16,10,4,74,57,35,29.93,29.84,11,6,24,0.02
2013-3-15,35,28,19,26,17,8,74,65,52,29.94,29.65,9,4,16,0.00
2013-3-16,33,24,14,16,13,5,71,62,48,29.89,29.75,7,3,14,0.00
2013-3-17,31,21,12,16,10,4,77,62,45,30.24,29.88,8,3,16,0.02
2013-3-18,37,24,13,21,11,4,80,59,32,30.25,29.77,14,4,30,0.02
2013-3-19,45,32,24,33,23,14,80,71,51,29.78,29.65,15,5,42,0.24
2013-3-20,38,27,19,21,15,10,74,63,48,29.78,29.72,6,3,14,0.02
2013-3-21,36,24,15,16,12,8,75,60,40,29.77,29.63,5,2,9,0.02
2013-3-22,34,27,22,22,19,16,77,71,58,29.83,29.65,6,3,15,0.02
2013-3-23,40,31,26,23,20,16,79,65,47,29.92,29.80,9,4,19,0.04
2013-3-24,42,32,23,24,18,15,77,59,40,29.92,29.70,6,2,10,0.02
2013-3-25,44,34,26,24,20,17,69,58,41,29.70,29.54,7,2,12,0.00
2013-3-26,46,34,28,32,23,16,76,65,45,29.87,29.65,6,2,15,0.02
2013-3-27,48,34,28,29,25,20,80,69,46,29.99,29.86,6,1,14,0.02
2013-3-28,45,35,30,34,27,24,83,72,57,30.14,29.97,5,1,9,0.11
2013-3-29,46,36,28,32,26,21,78,68,49,30.16,30.09,6,2,11,0.02
2013-3-30,53,37,27,28,23,19,77,58,31,30.15,30.04,6,1,8,0.02
2013-3-31,54,41,30,35,26,-100,82,59,35,30.05,29.67,9,5,21,0.30